Regional Weather Roundup
Issued by NWS

Home | Current Version | Previous Version | Graphics & Text | Print | Product List | Glossary On
Versions: 1 2 3 4 5 6 7 8 9 10 11 12 13 14 15 16 17 18 19 20 21 22 23 24 25 26 27 28 29 30 31 32 33 34 35 36 37 38 39 40 41 42 43 44 45 46 47 48 49 50
000
ASUS43 KDTX 270701
RWRMI
MICHIGAN HOURLY REGIONAL WEATHER ROUNDUP
NATIONAL WEATHER SERVICE DETROIT/PONTIAC MI
300 AM EDT SAT AUG 27 2016

NOTE: "FAIR" INDICATES FEW OR NO CLOUDS BELOW 12,000 FEET WITH NO
SIGNIFICANT WEATHER AND/OR OBSTRUCTION TO VISIBILITY.

MIZ047>049-052>055-059>063-066>070-074>076-081>083-270800-
SOUTHEAST LOWER MICHIGAN

CITY           SKY/WX    TMP DP  RH WIND       PRES   REMARKS
ADRIAN         CLOUDY    68  66  93 E3        30.15F
ALMA           CLOUDY    60  60 100 CALM      30.16S
ANN ARBOR      PTCLDY    64  64 100 CALM      30.15S
BAD AXE        FOG       60  60 100 CALM      30.16S VSB 1/4
CARO           CLEAR     59  59  99 CALM      30.15S
DETROIT CITY   MOCLDY    72  70  93 CALM      30.15R
DETROIT        CLOUDY    71  65  81 CALM      30.16R
FLINT          PTCLDY    66  62  87 S5        30.15F
GROSSE ILE     CLOUDY    70  67  91 CALM      30.14R
HILLSDALE      CLOUDY    66  64  92 CALM      30.16R
HOWELL         PTCLDY    64  63  97 CALM      30.16S

CITY           SKY/WX    TMP DP  RH WIND       PRES   REMARKS
JACKSON        CLOUDY    67  64  90 NE5       30.15F
LAMBERTVILLE   PTCLDY    67  65  93 CALM      30.15S
LANSING        PTCLDY    64  58  80 CALM      30.16S
LAPEER         FAIR      60  59  97 CALM      30.17R
MASON          PTCLDY    63  61  94 CALM      30.15F
MONROE         MOCLDY    67  66  99 N6        30.14S
MT. CLEMENS    PTCLDY    66  63  87 N5        30.14R
PONTIAC        CLEAR     65  62  90 CALM      30.15S
PORT HURON     CLEAR     61  61 100 CALM      30.16R FOG
TRI CITIES     CLEAR     62  59  90 N5        30.16S
MIDLAND        FAIR      58  58  99 CALM      30.15S
TROY           PTCLDY    72  61  69 NE3       30.17S
SAGINAW HB     CLEAR     61  59  94 CALM      30.15R
$$
MIZ043>046-050>051-056>058-064>065-071>073-077>080-270800-
SOUTHWEST LOWER MICHIGAN

CITY           SKY/WX    TMP DP  RH WIND       PRES   REMARKS
BATTLE CREEK   MOCLDY    66  61  84 E5        30.15S
BENTON HARBOR  CLOUDY    68  60  75 E7        30.12R
BIG RAPIDS     MOCLDY    58  57  96 CALM      30.16F
COLDWATER      CLOUDY    69  67  94 E5        30.14S
FREMONT        FAIR      62  57  83 NE7       30.15S
HOLLAND        CLOUDY    65  59  81 NE5       30.15S
GRAND RAPIDS   CLOUDY    63  58  83 NE5       30.15S
IONIA          FAIR      61  58  88 CALM      30.15R
KALAMAZOO      MOCLDY    68  60  75 CALM      30.15R
LUDINGTON      MOCLDY    58  57  96 E3        30.15S
MARSHALL       CLOUDY    66  63  88 CALM      30.15R
MOUNT PLEASANT CLEAR     60  57  92 CALM      30.16S
MUSKEGON       CLOUDY    63  57  81 NE7       30.14F
SOUTH HAVEN    CLOUDY    66  62  86 CALM      30.14R
$$
MIZ016>042-270800-
NORTHERN LOWER MICHIGAN

CITY           SKY/WX    TMP DP  RH WIND       PRES   REMARKS
ALPENA         PTCLDY    56  54  93 CALM      30.18S
BEAVER ISLAND  CLOUDY    63  60  90 E5        30.17F
BELLAIRE       CLOUDY    57  56  96 CALM      30.18S
CADILLAC       CLOUDY    56  54  92 CALM      30.18S
CHARLEVOIX     PTCLDY    61  59  94 E5        30.20R
FRANKFORT      LGT RAIN  60  58  92 W3        30.15F
GAYLORD        PTCLDY    57  52  83 CALM      30.19S
GRAYLING       MOCLDY    54  53  97 CALM      30.20S
HARBOR SPRINGS PTCLDY    59  57  94 NE3       30.18S
HOUGHTON LAKE  PTCLDY    57  54  89 NE3       30.19F
MANISTEE       CLOUDY    58  57  97 E6        30.16F
OSCODA         PTCLDY    61  60  97 NW3       30.17R
PELLSTON       PTCLDY    53  51  93 CALM      30.18F
ROGERS CITY    PTCLDY    56  54  92 CALM      30.19S
TRAVERSE CITY  CLOUDY    62  57  83 CALM      30.16S
$$
MIZ007>008-015-270800-
EASTERN UPPER MICHIGAN

CITY           SKY/WX    TMP DP  RH WIND       PRES   REMARKS
KINROSS        CLOUDY    59  54  83 N3        30.18F
MACKINAC ISLAN PTCLDY    60  53  79 NE8       30.17F
NEWBERRY       MOCLDY    56  55  97 CALM      30.18S
S. S. MARIE    MOCLDY    58  54  86 CALM      30.18S
$$
MIZ004>006-011>014-085-270800-
CENTRAL UPPER MICHIGAN

CITY           SKY/WX    TMP DP  RH WIND       PRES   REMARKS
MANISTIQUE     CLOUDY    59  56  91 NE3       30.17S
ESCANABA       CLOUDY    62  59  90 NE5       30.14F
MENOMINEE      CLOUDY   N/A N/A N/A CALM      30.15S
SAWYER-GWINN   CLOUDY    51  50  95 CALM      30.17F
$$
MIZ001>003-009>011-084-270800-
WESTERN UPPER MICHIGAN

CITY           SKY/WX    TMP DP  RH WIND       PRES   REMARKS
IRON MOUNTAIN  CLOUDY    57  54  89 CALM      30.15F
HOUGHTON       CLOUDY    50  47  89 CALM      30.15S
IRONWOOD       CLOUDY    51  50  96 CALM      30.15F
$$

ABBREVIATIONS USED IN REMARKS
   TC - TEMPERATURE IN CELSIUS
  WCI - WIND CHILL INDEX
   HX - HEAT INDEX
  VSB - VISIBILITY





USA.gov is the U.S. government's official web portal to all federal, state and local government web resources and services.